[[{"header":{"parameterUnit":"m.s-1","parameterCategory":1,"la1":30.2991,"la2":30.254,"lo1":-89.0895,"lo2":-89.0444,"dy":0.0017,"dx":0.0017,"nx":28,"ny":28,"refTime":"2024-04-12T09:00:00:Z","depth":0,"parameterNumber":2,"parameterNumberName":"U-component_of_WINDS"},"data":[0,0,0,0,0,0,0,0,0,0,0,0,0,0,0,0,0,0,0,0,0,0,0,0,0,0,0,0,0,0,0,0,0,0,0,0,0,0,0,0,0,0,0,0,0,0,0,0,0,0,0,0,0,0,0,0,0,0,1.5832,1.5832,0,1.5884,1.5884,1.5885,1.5891,1.5891,1.589,1.589,1.5948,1.595,1.5952,0,0,0,0,0,0,0,0,0,0,0,0,0,1.5743,1.5744,1.5831,1.5832,1.5833,1.5884,1.5884,1.5885,1.5891,1.5891,1.589,1.589,1.5947,1.595,1.5952,0,0,0,0,0,0,0,0,0,0,0,0,0,1.5787,1.5745,1.5831,1.5842,1.5843,1.5884,1.5884,1.5885,1.5892,1.5891,1.589,1.5889,1.5946,1.5949,1.5952,1.5987,0,0,1.5962,1.5963,0,0,0,0,0,0,0,0,1.5784,1.579,1.584,1.5841,1.5843,1.588,1.5874,1.592,1.5892,1.5873,1.589,1.5889,1.5926,1.5931,1.5943,1.599,1.5992,1.5962,1.5964,1.5965,1.5966,0,0,0,0,0,0,0,1.5781,1.5788,1.5852,1.584,1.5842,1.5846,1.5851,1.5883,1.5904,1.5875,1.5876,1.5881,1.5927,1.594,1.5944,1.5993,1.5962,1.5965,1.5966,1.5968,1.6074,1.6075,0,0,0,0,0,0,1.5775,1.5785,1.5851,1.5854,1.5811,1.5848,1.5854,1.5869,1.5903,1.5908,1.5882,1.5882,1.5935,1.594,1.5946,1.5991,1.5965,1.5968,1.597,1.6073,1.6075,1.6076,0,0,0,0,0,0,1.5773,1.5781,1.5849,1.582,1.5829,1.585,1.5867,1.5871,1.5883,1.5909,1.5913,1.5891,1.5934,1.5942,1.5977,1.5993,1.5969,1.5972,1.6072,1.6074,1.6075,1.6079,0,0,0,0,0,0,1.5771,1.578,1.5792,1.582,1.583,1.5877,1.5868,1.5872,1.5888,1.5888,1.5918,1.5922,1.5934,1.5973,1.598,1.5996,1.5974,1.6071,1.6073,1.6075,1.6077,1.608,1.6083,0,0,0,0,0,1.5768,1.5792,1.5793,1.5801,1.5845,1.5878,1.5884,1.5896,1.5889,1.5902,1.5919,1.5921,1.599,1.5976,1.5985,1.6002,1.607,1.6072,1.6074,1.6076,1.608,1.6083,0,0,0,0,0,0,1.5766,1.5795,1.5797,1.583,1.5851,1.5879,1.5895,1.5899,1.5923,1.5922,1.5938,1.5945,1.598,1.5995,1.5979,1.6039,1.6029,1.6034,1.6028,1.6031,1.6034,1.603,1.5977,0,0,0,0,0,1.577,1.5792,1.5817,1.5844,1.5854,1.5873,1.5888,1.5895,1.5918,1.5928,1.5947,1.5971,1.5998,1.6015,1.6042,1.608,1.6088,1.6096,1.6099,1.6101,1.6105,1.6129,1.6133,1.6083,1.6083,1.6083,0,0,1.5777,1.5796,1.5809,1.5844,1.5861,1.5886,1.5881,1.5907,1.5926,1.5932,1.5967,1.5982,1.601,1.6047,1.6065,1.6061,1.612,1.6104,1.6105,1.6108,1.6131,1.6136,1.614,1.6085,1.6084,1.6084,0,0,1.5804,1.5819,1.5845,1.5862,1.5888,1.5901,1.5907,1.5934,1.5944,1.5979,1.5985,1.6009,1.6054,1.6075,1.6091,1.6127,1.6131,1.6136,1.615,1.6173,1.6177,1.618,1.6195,1.62,1.6139,1.6139,1.6139,0,1.5811,1.5846,1.5858,1.5884,1.59,1.5906,1.5933,1.595,1.5984,1.5996,1.5991,1.6049,1.6068,1.6112,1.6121,1.6133,1.6143,1.6132,1.6175,1.6179,1.6182,1.6197,1.6202,1.614,1.6139,1.6139,1.6139,0,1.5854,1.5879,1.5897,1.5928,1.5947,1.5973,1.599,1.6008,1.6015,1.6029,1.6066,1.6089,1.6121,1.6131,1.6138,1.6177,1.6174,1.6171,1.6162,1.6187,1.6201,1.6207,1.614,1.614,1.614,1.614,0,0,1.5881,1.5919,1.5925,1.5941,1.5971,1.5991,1.6019,1.6049,1.6065,1.6089,1.6114,1.6154,1.6153,1.6171,1.6181,1.6201,1.6231,1.6197,1.6198,1.6204,1.6278,1.628,1.6286,1.6233,1.6235,1.6235,1.6276,0,1.5912,1.596,1.5972,1.6014,1.6039,1.6046,1.6071,1.6093,1.6107,1.6132,1.6149,1.6177,1.6172,1.6184,1.6204,1.6223,1.6246,1.622,1.626,1.6261,1.6253,1.6293,1.6295,1.6332,1.6281,1.6282,1.6283,0,1.5955,1.5979,1.6023,1.6051,1.6062,1.6084,1.6114,1.6136,1.6163,1.6172,1.6194,1.6202,1.6234,1.6223,1.6269,1.6251,1.6268,1.628,1.6282,1.6287,1.6274,1.63,1.6343,1.635,1.6291,1.629,1.629,0,1.5972,1.6015,1.6048,1.606,1.6094,1.6109,1.6125,1.615,1.6168,1.6195,1.6208,1.6238,1.6255,1.628,1.6297,1.6287,1.6343,1.6332,1.6353,1.6353,1.6365,1.6364,1.6413,1.6374,1.6374,1.6374,1.6374,0,1.6006,1.6033,1.6056,1.6076,1.6108,1.6122,1.6154,1.617,1.6193,1.6218,1.6226,1.625,1.6271,1.6298,1.6312,1.6349,1.6357,1.6367,1.6371,1.6367,1.6366,1.6379,1.6378,1.6375,1.6375,1.6375,1.6375,0,1.603,1.6046,1.6083,1.6112,1.612,1.6142,1.6168,1.6189,1.6204,1.6236,1.6245,1.6269,1.6302,1.6321,1.6363,1.6373,1.6415,1.6416,1.6405,1.6407,1.6428,1.6426,1.6487,1.6497,1.645,1.6451,1.6451,0,1.6052,1.6073,1.6104,1.6121,1.6136,1.6163,1.6181,1.6197,1.6217,1.625,1.6268,1.6301,1.6328,1.6381,1.6404,1.6437,1.6441,1.646,1.6446,1.6442,1.6443,1.6442,1.6445,1.6463,1.6463,1.6463,1.6464,0,1.6088,1.6095,1.6121,1.615,1.6171,1.6195,1.6219,1.6233,1.6254,1.6275,1.6309,1.633,1.6373,1.6407,1.6442,1.646,1.6467,1.6468,1.6475,1.6472,1.6465,1.6471,1.6413,1.6466,1.6466,1.6466,1.6466,1.6466,1.6113,1.6133,1.6158,1.6187,1.6207,1.6229,1.6251,1.6269,1.6296,1.6331,1.634,1.6375,1.6404,1.6452,1.6471,1.6501,1.6498,1.6507,1.651,1.6513,1.6514,1.6459,1.6507,1.6507,1.6507,1.6507,1.6507,0,1.6152,1.6168,1.6195,1.6228,1.6251,1.6253,1.628,1.6301,1.6331,1.6357,1.6384,1.6423,1.6457,1.6483,1.6518,1.6537,1.6541,1.6546,1.6545,1.655,1.6514,1.6505,1.6542,1.6542,1.6542,1.6542,1.6542,1.6542,1.6174,1.6209,1.6219,1.6265,1.6282,1.6316,1.6331,1.6353,1.6374,1.6417,1.6445,1.6461,1.6488,1.6525,1.6557,1.6564,1.6577,1.6582,1.659,1.6556,1.6552,1.6548,1.654,1.6584,1.6584,1.6623,1.6624,1.6624]},{"header":{"parameterUnit":"m.s-1","parameterCategory":1,"la1":30.2991,"la2":30.254,"lo1":-89.0895,"lo2":-89.0444,"dy":0.0017,"dx":0.0017,"nx":28,"ny":28,"refTime":"2024-04-12T09:00:00:Z","depth":0,"parameterNumber":3,"parameterNumberName":"V-component_of_WINDS"},"data":[0,0,0,0,0,0,0,0,0,0,0,0,0,0,0,0,0,0,0,0,0,0,0,0,0,0,0,0,0,0,0,0,0,0,0,0,0,0,0,0,0,0,0,0,0,0,0,0,0,0,0,0,0,0,0,0,0,0,-1.7008,-1.7008,0,-1.6965,-1.6965,-1.6964,-1.6973,-1.6974,-1.6975,-1.6976,-1.6929,-1.6927,-1.6925,0,0,0,0,0,0,0,0,0,0,0,0,0,-1.7093,-1.7091,-1.7008,-1.7008,-1.7007,-1.6965,-1.6965,-1.6964,-1.6973,-1.6974,-1.6975,-1.6976,-1.693,-1.6927,-1.6925,0,0,0,0,0,0,0,0,0,0,0,0,0,-1.7054,-1.7091,-1.7008,-1.7007,-1.7006,-1.6966,-1.6965,-1.6964,-1.6973,-1.6974,-1.6975,-1.6976,-1.693,-1.6927,-1.6925,-1.6882,0,0,-1.6915,-1.6914,0,0,0,0,0,0,0,0,-1.7056,-1.7051,-1.7007,-1.7007,-1.7006,-1.6976,-1.6978,-1.6937,-1.6973,-1.6985,-1.6976,-1.6977,-1.6943,-1.6939,-1.6929,-1.688,-1.6878,-1.6915,-1.6913,-1.6912,-1.6911,0,0,0,0,0,0,0,-1.7059,-1.7052,-1.6991,-1.7007,-1.7006,-1.7006,-1.7002,-1.697,-1.6958,-1.6984,-1.6985,-1.698,-1.6943,-1.6932,-1.6928,-1.6877,-1.6915,-1.6913,-1.6911,-1.691,-1.6789,-1.6787,0,0,0,0,0,0,-1.7062,-1.7055,-1.6992,-1.699,-1.7034,-1.7004,-1.6999,-1.6984,-1.6959,-1.6956,-1.6979,-1.698,-1.6936,-1.6931,-1.6926,-1.6872,-1.6912,-1.6909,-1.6908,-1.679,-1.6788,-1.6787,0,0,0,0,0,0,-1.7064,-1.7057,-1.6994,-1.7022,-1.7014,-1.7001,-1.6984,-1.6983,-1.6971,-1.6954,-1.6952,-1.6969,-1.6937,-1.693,-1.6893,-1.6871,-1.6908,-1.6905,-1.6792,-1.6789,-1.6787,-1.6766,0,0,0,0,0,0,-1.7067,-1.7057,-1.7042,-1.7022,-1.7013,-1.6963,-1.6983,-1.6981,-1.6966,-1.6968,-1.6945,-1.6942,-1.6937,-1.6897,-1.689,-1.6868,-1.6903,-1.6793,-1.6791,-1.6788,-1.6769,-1.6764,-1.676,0,0,0,0,0,-1.707,-1.7038,-1.7042,-1.7034,-1.6994,-1.6962,-1.6956,-1.6952,-1.6965,-1.6948,-1.6937,-1.6943,-1.6875,-1.6893,-1.6885,-1.6862,-1.6795,-1.6791,-1.6788,-1.6771,-1.6765,-1.676,0,0,0,0,0,0,-1.7056,-1.7036,-1.7039,-1.7001,-1.6983,-1.6963,-1.6943,-1.6946,-1.6924,-1.6926,-1.6921,-1.6915,-1.6876,-1.6866,-1.6886,-1.6818,-1.6836,-1.6831,-1.6826,-1.682,-1.6815,-1.6818,-1.69,0,0,0,0,0,-1.7049,-1.7025,-1.7008,-1.6976,-1.6967,-1.6956,-1.6942,-1.694,-1.6921,-1.6913,-1.69,-1.688,-1.6854,-1.6837,-1.6812,-1.6768,-1.6761,-1.6748,-1.6743,-1.6739,-1.6734,-1.6707,-1.67,-1.6776,-1.6776,-1.6776,0,0,-1.7033,-1.7019,-1.7005,-1.6973,-1.6959,-1.6932,-1.695,-1.6922,-1.6902,-1.6909,-1.6872,-1.6861,-1.6838,-1.6796,-1.6777,-1.6786,-1.6712,-1.6735,-1.6732,-1.6729,-1.6703,-1.6696,-1.6689,-1.6774,-1.6774,-1.6775,0,0,-1.6991,-1.6979,-1.6949,-1.6935,-1.6913,-1.6906,-1.6899,-1.6878,-1.6871,-1.6834,-1.6838,-1.6813,-1.677,-1.6752,-1.6738,-1.6687,-1.669,-1.6679,-1.6653,-1.6627,-1.6621,-1.6615,-1.6594,-1.6587,-1.6674,-1.6674,-1.6674,0,-1.6974,-1.6936,-1.6933,-1.6905,-1.6889,-1.6895,-1.6863,-1.6849,-1.682,-1.6808,-1.6819,-1.6762,-1.6747,-1.67,-1.6687,-1.6677,-1.6666,-1.6681,-1.6622,-1.6617,-1.6611,-1.6591,-1.6584,-1.6673,-1.6673,-1.6673,-1.6673,0,-1.6915,-1.6888,-1.6866,-1.6838,-1.6821,-1.6791,-1.6782,-1.6764,-1.6763,-1.6754,-1.6715,-1.6698,-1.6668,-1.6657,-1.6656,-1.6609,-1.6614,-1.6624,-1.6642,-1.6603,-1.6584,-1.6576,-1.6671,-1.6671,-1.6672,-1.6672,0,0,-1.6863,-1.6833,-1.6825,-1.6811,-1.6787,-1.6765,-1.6734,-1.6706,-1.6689,-1.6669,-1.6641,-1.6603,-1.6611,-1.6594,-1.6591,-1.6568,-1.6525,-1.658,-1.6579,-1.6568,-1.6468,-1.6459,-1.6451,-1.6528,-1.6526,-1.6525,-1.6469,0,-1.6816,-1.6763,-1.6759,-1.671,-1.6683,-1.6687,-1.666,-1.6641,-1.6631,-1.6606,-1.6596,-1.6567,-1.6581,-1.6571,-1.6548,-1.6535,-1.6504,-1.654,-1.6499,-1.6498,-1.6503,-1.6441,-1.6433,-1.638,-1.6462,-1.646,-1.646,0,-1.6755,-1.6733,-1.6681,-1.6658,-1.6647,-1.6623,-1.6595,-1.6572,-1.6549,-1.6544,-1.6524,-1.6524,-1.649,-1.6511,-1.6462,-1.6486,-1.6469,-1.646,-1.6457,-1.6452,-1.6475,-1.6431,-1.6364,-1.6355,-1.6448,-1.6449,-1.645,0,-1.6719,-1.6676,-1.6639,-1.6627,-1.66,-1.6583,-1.657,-1.6549,-1.6532,-1.6507,-1.6495,-1.6467,-1.645,-1.6427,-1.6418,-1.6435,-1.6369,-1.639,-1.6361,-1.6361,-1.6345,-1.6346,-1.6272,-1.6339,-1.6339,-1.6339,-1.6339,0,-1.6667,-1.6634,-1.6622,-1.6599,-1.6562,-1.6556,-1.6519,-1.6508,-1.6489,-1.6462,-1.6464,-1.6438,-1.6429,-1.6401,-1.6394,-1.6352,-1.6346,-1.6338,-1.6336,-1.6337,-1.6337,-1.6324,-1.6327,-1.6337,-1.6337,-1.6338,-1.6338,0,-1.662,-1.6611,-1.657,-1.6547,-1.6541,-1.6514,-1.6494,-1.647,-1.6461,-1.6427,-1.6418,-1.6403,-1.637,-1.6359,-1.6319,-1.6314,-1.6265,-1.6268,-1.6273,-1.6272,-1.6243,-1.6245,-1.6156,-1.6142,-1.622,-1.6219,-1.6219,0,-1.6586,-1.6561,-1.6535,-1.6517,-1.6504,-1.6476,-1.6458,-1.6451,-1.6432,-1.6403,-1.6382,-1.635,-1.6323,-1.627,-1.6254,-1.6223,-1.6223,-1.6194,-1.6218,-1.6218,-1.6219,-1.622,-1.6215,-1.6189,-1.6188,-1.6187,-1.6187,0,-1.6525,-1.6521,-1.6496,-1.6467,-1.6445,-1.6423,-1.6401,-1.6386,-1.6375,-1.6353,-1.6319,-1.6299,-1.6258,-1.6224,-1.6192,-1.6177,-1.6179,-1.6179,-1.617,-1.6169,-1.6172,-1.6167,-1.6258,-1.6181,-1.6182,-1.6182,-1.6182,-1.6183,-1.6482,-1.6459,-1.6436,-1.6407,-1.6389,-1.6368,-1.6344,-1.6331,-1.6304,-1.627,-1.6267,-1.623,-1.6206,-1.6163,-1.6146,-1.6116,-1.6124,-1.6112,-1.6108,-1.6105,-1.6101,-1.6179,-1.611,-1.611,-1.6111,-1.6111,-1.6111,0,-1.6419,-1.6405,-1.6378,-1.6346,-1.6322,-1.6327,-1.6302,-1.6281,-1.6249,-1.6227,-1.62,-1.616,-1.6127,-1.6108,-1.6074,-1.6053,-1.6053,-1.6044,-1.6045,-1.6041,-1.6097,-1.6107,-1.6045,-1.6045,-1.6045,-1.6045,-1.6045,-1.6045,-1.6383,-1.6344,-1.6337,-1.6287,-1.6273,-1.6237,-1.6222,-1.6201,-1.6183,-1.6138,-1.6111,-1.6099,-1.6077,-1.6042,-1.6011,-1.6006,-1.5992,-1.5982,-1.5977,-1.603,-1.6037,-1.6043,-1.6052,-1.598,-1.598,-1.5923,-1.5922,-1.5922]}]]